GSAT0225 (PRN E29) (59598 NORAD) Tracking and Keplerian Element Data

This shows tracking and keplerian element data for the satellite.

Feedback or suggestion? Click here.




ElementValue
Catalog59598
NameGSAT0225 (PRN E29)
Epoch Orbit70
Epoch Day159.6707431
Epoch Year2024
RAAN121.777
Inclination54.6831
Eccentricity0.0021458
Argument of Perigee254.9581
Mean Anonmoly287.6315
Mean Motion1.72327414
Decay Rate6E-08
L11 59598U 24079A 24159.67074310 .00000006 00000+0 00000+0 0 9991
L22 59598 54.6831 121.7770 0021458 254.9581 287.6315 1.72327414 704



Live tracking and technical data element details for GSAT0225 (PRN E29) (NORAD 59598). GSAT0225 (PRN E29) can be tracked NOW for your location showing map with azimuth and elevation plus other details from your city location.







IsCatalogInMostPopularTable: catalog: 59598, numindb: 13
Update: records affected: 1



GetName: 59598 GSAT0225 (PRN E29)

Hit Count: updated at: Fri, 14 Jun 2024 18:05:29 GMT